EUTELSAT 7 WEST A

Last updated on Tue Oct 15 2024 00:02:39 GMT+0000 (Coordinated Universal Time)

1 37816U 11051A 24288.22340819 -.00000062 00000+0 00000+0 0 9993 2 37816 0.0931 47.2007 0006605 157.0582 252.1530 1.00271581 47773
UTC large
Height (km)
Speed (km/s)
/
Latitude / Longitude
Inclination (degrees)
Orbital Period (minutes)
Azimuth
Elevation
Range (km)
Doppler Factor

Next 0 passes for location: London (51.5072 / 0.1276)

Sorry there are no passes over London.